Ketchikan, AK

9:48 PM AKDT on September 20, 2018 (GMT -0800)
Ketchikan International

Weather History for PAKT - August, 2018

Change the Weather History Date:

Friday, August 10, 2018

  Actual Average Record
Temperature  
Mean Temperature 58 °F -  
Max Temperature 70 °F 66 °F 82 °F (1977)
Min Temperature 48 °F 51 °F 43 °F (1973)
Degree Days  
Heating Degree Days 6    
Growing Degree Days 8 (Base 50)    
Moisture  
Dew Point 50 °F    
Average Humidity 82    
Maximum Humidity 97    
Minimum Humidity 46    
Precipitation  
Precipitation 0.00 in - - ()
Sea Level Pressure  
Sea Level Pressure 30.07 in    
Wind  
Wind Speed 3 mph (NW)    
Max Wind Speed 12 mph    
Max Gust Speed 18 mph    
Visibility 8 miles    
Events Fog    
Averages and records for this station are not official NWS values.
T = Trace of Precipitation, MM = Missing Value Source: NWS Daily Summary

Daily Weather History Graph

Daily Weather History Graph

Search for Another Location

Airport or City:

Astronomy

Aug. 10, 2018 Rise Set
Actual Time 5:11 AM AKDT 8:31 PM AKDT
Civil Twilight 4:27 AM AKDT 9:15 PM AKDT
Nautical Twilight 3:26 AM AKDT 10:15 PM AKDT
Astronomical Twilight 1:52 AM AKDT 11:45 PM AKDT
Moon 4:01 AM AKDT (8/10) 8:24 PM AKDT (8/10)
Length of Visible Light 16h 48m
Length of Day
15h 20m
Waning Crescent, 1% of the Moon is Illuminated
Aug 10
Waning Crescent
Aug 11
New
Aug 17
First Quarter
Aug 26
Full
Sep 2
Last Quarter

Hourly Weather History & Observations

Time (AKDT) Temp. Dew Point Humidity Pressure Visibility Wind Dir Wind Speed Gust Speed Precip Events Conditions
12:49 AM 51.8 °F 50.0 °F 94% 30.02 in 10.0 mi Calm Calm - N/A   Mostly Cloudy
12:53 AM 52.0 °F 50.0 °F 93% 30.03 in 10.0 mi Calm Calm - N/A   Mostly Cloudy
1:12 AM 51.1 °F 50.0 °F 96% 30.02 in 2.0 mi SW 3.5 mph - N/A   Overcast
1:14 AM 51.1 °F 50.0 °F 96% 30.02 in 0.5 mi SW 3.5 mph - N/A Fog Fog
1:21 AM 52.0 °F 51.1 °F 97% 30.02 in 0.2 mi SSW 3.5 mph - N/A Fog Fog
1:25 AM 52.0 °F 51.1 °F 97% 30.02 in 0.2 mi Calm Calm - N/A Fog Fog
1:34 AM 51.1 °F 50.0 °F 96% 30.03 in 1.2 mi Calm Calm - N/A   Mostly Cloudy
1:36 AM 51.1 °F 50.0 °F 96% 30.03 in 4.0 mi Calm Calm - N/A   Mostly Cloudy
1:46 AM 50.0 °F 48.9 °F 96% 30.03 in 10.0 mi South 3.5 mph - N/A   Scattered Clouds
1:53 AM 51.1 °F 50.0 °F 96% 30.04 in 10.0 mi South 3.5 mph - N/A   Scattered Clouds
2:25 AM 50.0 °F 48.9 °F 96% 30.04 in 10.0 mi Calm Calm - N/A   Overcast
2:53 AM 50.0 °F 48.9 °F 96% 30.05 in 10.0 mi Calm Calm - N/A   Overcast
3:07 AM 52.0 °F 51.1 °F 97% 30.05 in 10.0 mi Calm Calm - N/A   Overcast
3:49 AM 51.8 °F 50.0 °F 94% 30.05 in 3.0 mi Calm Calm - N/A   Mostly Cloudy
3:53 AM 51.1 °F 50.0 °F 96% 30.06 in 1.8 mi Calm Calm - N/A   Mostly Cloudy
4:01 AM 51.1 °F 50.0 °F 96% 30.05 in 3.0 mi Calm Calm - N/A   Mostly Cloudy
4:18 AM 50.0 °F 48.9 °F 96% 30.05 in 10.0 mi Calm Calm - N/A   Scattered Clouds
4:53 AM 48.9 °F 46.9 °F 93% 30.06 in 10.0 mi Calm Calm - N/A   Clear
5:03 AM 48.9 °F 46.9 °F 93% 30.05 in 10.0 mi West 3.5 mph - N/A   Partly Cloudy
5:23 AM 48.9 °F 48.0 °F 97% 30.05 in 10.0 mi West 3.5 mph - N/A   Mostly Cloudy
5:53 AM 48.9 °F 46.9 °F 93% 30.06 in 10.0 mi Calm Calm - N/A   Mostly Cloudy
6:03 AM 48.2 °F 46.4 °F 93% 30.06 in 8.0 mi Calm Calm - N/A   Overcast
6:38 AM 50.0 °F 48.2 °F 94% 30.07 in 10.0 mi NW 3.5 mph - N/A   Scattered Clouds
6:43 AM 51.8 °F 50.0 °F 94% 30.07 in 10.0 mi NW 3.5 mph - N/A   Scattered Clouds
6:53 AM 53.6 °F 51.8 °F 94% 30.07 in 10.0 mi Calm Calm - N/A   Scattered Clouds
7:53 AM 57.0 °F 53.1 °F 87% 30.08 in 10.0 mi NW 5.8 mph - N/A   Partly Cloudy
8:53 AM 59.0 °F 53.1 °F 81% 30.09 in 10.0 mi North 8.1 mph - N/A   Partly Cloudy
9:53 AM 62.1 °F 52.0 °F 70% 30.11 in 10.0 mi NNW 8.1 mph - N/A   Partly Cloudy
10:53 AM 64.4 °F 51.8 °F 64% 30.12 in 10.0 mi NNW 9.2 mph - N/A   Scattered Clouds
11:53 AM 66.2 °F 51.8 °F 60% 30.12 in 10.0 mi NNW 9.2 mph - N/A   Scattered Clouds
12:53 PM 64.4 °F 51.8 °F 64% 30.12 in 10.0 mi North 10.4 mph - N/A   Scattered Clouds
1:53 PM 68.0 °F 50.0 °F 52% 30.12 in 10.0 mi NNW 11.5 mph - N/A   Scattered Clouds
2:53 PM 69.8 °F 50.0 °F 49% 30.12 in 10.0 mi NW 11.5 mph - N/A   Scattered Clouds
3:53 PM 69.8 °F 48.2 °F 46% 30.11 in 10.0 mi NW 11.5 mph - N/A   Clear
4:53 PM 68.0 °F 51.8 °F 56% 30.11 in 10.0 mi NNW 10.4 mph - N/A   Clear
5:53 PM 68.0 °F 48.2 °F 49% 30.10 in 10.0 mi WNW 9.2 mph - N/A   Clear
6:53 PM 66.2 °F 48.2 °F 52% 30.11 in 10.0 mi WNW 6.9 mph - N/A   Clear
7:53 PM 62.6 °F 51.8 °F 68% 30.11 in 10.0 mi NW 8.1 mph - N/A   Clear
8:53 PM 62.6 °F 50.0 °F 63% 30.12 in 10.0 mi NNW 9.2 mph - N/A   Clear
9:53 PM 60.1 °F 50.0 °F 69% 30.12 in 10.0 mi NW 9.2 mph - N/A   Clear
10:53 PM 60.1 °F 48.9 °F 67% 30.11 in 10.0 mi NW 11.5 mph - N/A   Clear
11:53 PM 59.0 °F 50.0 °F 72% 30.10 in 10.0 mi NW 10.4 mph 18.4 mph N/A   Clear